Tracking 20721 objects as of 2-Jun-2020
HD Live streaming from Space Station
objects crossing your sky now

METEOR 2-17 DEB

Track METEOR 2-17 DEB now!
10-day predictions


NORAD ID: 35365
Int'l Code: 1988-005Z
Perigee: 922.1 km
Apogee: 934.3 km
Inclination: 82.5 °
Period: 103.4 minutes
Semi major axis: 7299 km
RCS: 0.0068 m2 (small)
Launch date: January 30, 1988
Source: Commonwealth of Independent States (former USSR) (CIS)
Launch site: PLESETSK MISSILE AND SPACE COMPLEX (PKMTR)

Note: This is SATELLITE DEBRIS
aabbcc
Your satellite tracking list
Your tracking list is empty




NASA's NSSDC Master Catalog

Two Line Element Set (TLE):
1 35365U 88005Z   20142.60330314  .00000112  00000-0  75614-4 0  9993
2 35365  82.5202 260.2956 0008344  93.8093 279.3072 13.92174358623176
Source of the keplerian elements: AFSPC